COSMOS 1275 DEB

Satellite information

Favourite Embed

Satellite Type and Status

DEBRISIN ORBIT

Key statistics

Satellite COSMOS 1275 DEB at a glance.

Uptime

16211

Days in orbit

Revolutions

≈ 14.4

Per day

Orbit

LEO

Low Earth Orbit

Inclination

83.2

Latest

Satellite identification and parameters

Extended collection of information and parameters for COSMOS 1275 DEB.

Object identification

Identified? True

Debris? True

Object name: COSMOS 1275 DEB

International designator: 1981-053HG

Object number (NORAD): 13812

Object ID (CCSDS): 13812

Country: COMMONWEALTH OF INDEPENDENT STATES (CIS)

Current information (Y/N): Y

RCS size: SMALL

Orbital parameters

Period: 100.301 minutes

Inclination: 83.2498 deg

SMA: 7150.939 km

Apoapsis: 800.156 km

Periapsis: 745.452 km

RAAN: 194.0506 deg

Eccentricy: 0.0038249

Argument of periapsis: 346.8668 deg

Mean anomaly: 67.5373 deg

Mean motion: 14.35681658 rev/day

Mean motion (dot): 0.00009514 rev/day2

B* drag term: 0.0032612 1/REarth

Two-line elements (TLE)

Creation date: Oct. 21, 2025, 11:56 p.m.

Reference frame: TEME

Reference center: EARTH

Epoch: Oct. 21, 2025, 5:55 p.m. UTC

TLE line 0: 0 COSMOS 1275 DEB

TLE line 1: 1 13812U 81053HG 25294.74697985 .00009514 00000-0 32612-2 0 9994

TLE line 2: 2 13812 83.2498 194.0506 0038249 346.8668 67.5373 14.35681658191552

Live tracking on map

Real-time ground track for satellite COSMOS 1275 DEB.

In-orbit conjunctions

A list of the most updated potential collisions computed for object COSMOS 1275 DEB.

Target Orbit TCA Probability of collision Miss distance Type
IRIDIUM 33 DEB LEO 2025-09-03 22:31:17 0.0002909286 61.0 (m) DEBRIS
CZ-6A DEB LEO 2024-12-13 23:26:30 0.0001264877 106.0 (m) DEBRIS

Associated space launch

Navigation satellite providing location information for the Tsiklon-B navigation system

COSMOS 1275 DEB was lifted into orbit during the mission ‘Kosmos-3M | Parus 27’, on board a Kosmos-3M space rocket.

The launch took place on June 4, 1981, 3:41 p.m. from 132/2.

For more information about the launch, click the button.

Launch to space Kosmos-3M | Parus 27
Kosmos-3M | Parus 27

Agency: N/A

Status: Launch Successful

Launch date: June 4, 1981, 3:41 p.m. UTC

Rocket: Kosmos-3M

Launch pad: 132/2

Location: Plesetsk Cosmodrome, Russian Federation

...

Latest news about this satellite

There are no fresh news available about this satellite. Check back as we update our databases every day.


Newsletter sign-up

Weekly statistics, charts and insights to help you stay on top of the space industry.